EST,Max TemperatureF,Mean TemperatureF,Min TemperatureF,Max Dew PointF,MeanDew PointF,Min DewpointF,Max Humidity, Mean Humidity, Min Humidity, Max Sea Level PressureIn, Mean Sea Level PressureIn, Min Sea Level PressureIn, Max VisibilityMiles, Mean VisibilityMiles, Min VisibilityMiles, Max Wind SpeedMPH, Mean Wind SpeedMPH, Max Gust SpeedMPH,PrecipitationIn, CloudCover, Events, WindDirDegrees
2011-12-1,45,36,27,31,23,18,70,54,37,30.29,30.10,29.85,10,10,10,21,9,31,0.00,1,,321
2011-12-2,44,33,21,28,25,21,100,75,49,30.48,30.33,30.24,10,10,10,9,2,12,0.00,2,,328
2011-12-3,41,32,22,28,24,20,92,69,46,30.70,30.62,30.49,10,10,8,10,2,13,0.00,0,,0
2011-12-4,51,35,19,37,29,18,96,74,52,30.62,30.49,30.37,10,9,6,14,5,20,0.00,1,,159
2011-12-5,56,42,28,44,35,27,100,83,66,30.35,30.30,30.19,10,4,0,7,1,9,0.00,1,Fog,309
2011-12-6,62,52,41,55,51,41,100,89,78,30.16,30.02,29.90,10,7,2,10,6,14,0.29,8,Rain,167
2011-12-7,51,45,39,52,45,39,100,96,92,29.90,29.78,29.53,10,6,1,10,3,13,1.52,8,Rain,14
2011-12-8,42,35,28,39,29,21,100,73,46,30.25,29.71,29.38,10,7,1,33,12,46,0.62,5,Rain-Snow,304
2011-12-9,46,35,24,28,25,21,92,66,40,30.33,30.26,30.19,10,10,10,17,3,23,0.00,1,,198
2011-12-10,40,31,21,30,21,13,100,71,41,30.43,30.26,30.15,10,9,4,18,4,24,T,3,,324
2011-12-11,36,25,14,20,15,12,88,63,38,30.61,30.55,30.44,10,10,10,8,2,10,0.00,0,,199
2011-12-12,48,32,16,21,17,13,92,59,26,30.55,30.48,30.39,10,10,9,9,2,13,0.00,0,,189
2011-12-13,47,31,15,29,22,14,92,65,37,30.38,30.35,30.30,10,10,7,13,2,17,0.00,2,,318
2011-12-14,39,33,27,30,27,25,92,78,64,30.44,30.39,30.32,10,9,7,75,0,7,0.00,7,,205
2011-12-15,51,41,31,45,38,29,93,85,78,30.30,29.93,29.65,10,9,5,17,8,23,0.04,7,Rain,174
2011-12-16,50,40,30,46,31,25,75,62,49,30.06,29.86,29.59,10,10,6,29,10,37,0.02,4,Rain,282
2011-12-17,35,27,18,28,18,5,100,69,38,30.19,30.09,30.01,10,9,1,17,7,22,T,2,Snow,330
2011-12-18,26,16,6,8,3,-5,83,56,29,30.30,30.25,30.19,10,10,10,12,4,14,0.00,0,,327
2011-12-19,41,23,4,30,15,1,88,67,45,30.26,30.01,29.80,10,10,10,14,5,20,0.00,4,,188
2011-12-20,43,29,15,34,18,8,80,58,35,30.22,30.08,29.81,10,10,8,22,8,29,0.01,2,Rain,320
2011-12-21,33,24,14,32,28,11,100,87,74,30.21,29.88,29.62,10,4,1,10,0,13,0.12,8,Rain,307
2011-12-22,52,42,31,41,34,30,100,75,50,30.08,29.83,29.60,10,6,0,16,5,24,0.02,6,Fog-Rain,304
2011-12-23,41,34,26,36,31,15,100,82,63,30.20,29.97,29.89,10,5,1,23,6,30,0.62,7,Rain-Snow,315
2011-12-24,27,18,8,15,5,-2,83,58,32,30.51,30.40,30.21,10,10,10,16,6,23,0.00,0,,319
2011-12-25,27,17,7,21,13,2,88,77,66,30.51,30.19,29.88,10,8,2,9,2,13,T,6,Snow,275
2011-12-26,35,26,16,26,20,15,100,76,51,30.25,30.07,29.85,10,10,10,25,6,35,T,4,,320
2011-12-27,51,33,14,49,31,12,93,73,53,30.14,29.77,29.28,10,7,2,22,6,29,0.64,5,Rain,135
2011-12-28,54,39,23,54,36,9,100,76,52,29.61,29.31,29.22,10,9,2,25,12,35,0.13,6,Rain,234
2011-12-29,29,21,12,8,-2,-10,73,46,19,30.03,29.86,29.62,10,10,10,23,9,31,0.00,0,,298
2011-12-30,32,23,13,23,15,11,80,65,49,30.14,30.09,30.04,10,10,10,7,1,8,0.00,7,,356
2011-12-31,35,31,27,36,31,23,100,89,78,30.08,29.91,29.83,10,2,0,10,2,13,0.03,7,Fog-Rain,312